[[{"header":{"parameterUnit":"m.s-1","parameterCategory":2,"la1":30.2991,"la2":30.254,"lo1":-89.0895,"lo2":-89.0444,"dy":0.0017,"dx":0.0017,"nx":28,"ny":28,"refTime":"2024-10-14T09:00:00:Z","depth":"0","parameterNumber":2,"parameterNumberName":"U-component_of_CURRENTS"},"data":[0,0,0,0,0,0,0,0,0,0,0,0,0,0,0,0,0,0,0,0,0,0,0,0,0,0,0,0,0,0,0,0,0,0,0,0,0,0,0,0,0,0,0,0,0,0,0,0,0,0,0,0,0,0,0,0,0,0,0.1564,0.1565,0,0.1602,0.1602,0.1602,0.1628,0.1629,0.1629,0.163,0.1601,0.16,0.1598,0,0,0,0,0,0,0,0,0,0,0,0,0,0.1563,0.1563,0.1564,0.1565,0.1566,0.1602,0.1602,0.1602,0.1628,0.1629,0.1629,0.163,0.1601,0.16,0.1598,0,0,0,0,0,0,0,0,0,0,0,0,0,0.1575,0.1562,0.1564,0.1586,0.1589,0.1602,0.1602,0.1602,0.1628,0.1629,0.163,0.163,0.1602,0.16,0.1598,0.1569,0,0,0.1592,0.1591,0,0,0,0,0,0,0,0,0.1574,0.1574,0.1582,0.1585,0.1588,0.1615,0.1591,0.1589,0.1628,0.1609,0.163,0.1631,0.1601,0.1599,0.16,0.1567,0.1566,0.1592,0.1591,0.159,0.1589,0,0,0,0,0,0,0,0.1573,0.1573,0.1575,0.1583,0.1587,0.1611,0.1613,0.1591,0.1595,0.1611,0.1614,0.1624,0.1602,0.1602,0.1599,0.1566,0.1592,0.159,0.1589,0.1588,0.1531,0.153,0,0,0,0,0,0,0.1573,0.1572,0.1574,0.1577,0.1587,0.161,0.1612,0.1602,0.1597,0.1599,0.1623,0.1625,0.1605,0.1601,0.1598,0.1578,0.159,0.1588,0.1587,0.1531,0.1531,0.153,0,0,0,0,0,0,0.1572,0.1572,0.1573,0.158,0.1582,0.161,0.1598,0.1602,0.1604,0.1608,0.1608,0.1621,0.1605,0.1601,0.1595,0.1577,0.1587,0.1585,0.1531,0.1531,0.153,0.1528,0,0,0,0,0,0,0.1571,0.157,0.1572,0.1579,0.1582,0.1574,0.1598,0.1603,0.1611,0.1614,0.1606,0.1605,0.1605,0.1598,0.1593,0.1574,0.1584,0.1532,0.1531,0.1531,0.1529,0.1527,0.1527,0,0,0,0,0,0.1571,0.1564,0.1571,0.1573,0.1579,0.1574,0.1576,0.1597,0.161,0.1603,0.1615,0.1605,0.159,0.1597,0.1591,0.1571,0.1532,0.1531,0.1531,0.1529,0.1528,0.1527,0,0,0,0,0,0,0.1542,0.1566,0.1575,0.1569,0.1571,0.158,0.1587,0.1592,0.1596,0.1605,0.1604,0.1603,0.1592,0.158,0.1588,0.1553,0.1557,0.1555,0.1558,0.1556,0.1555,0.1549,0.1582,0,0,0,0,0,0.1542,0.1552,0.1562,0.1553,0.156,0.1571,0.1577,0.1585,0.1589,0.1592,0.1579,0.1577,0.1582,0.1571,0.1566,0.154,0.1553,0.1522,0.1521,0.1521,0.1512,0.1548,0.155,0.1528,0.1528,0.1528,0,0,0.1512,0.1542,0.1535,0.1551,0.156,0.1553,0.1575,0.1578,0.1565,0.1586,0.1559,0.1574,0.1578,0.1565,0.1556,0.1551,0.1532,0.152,0.1519,0.1511,0.1547,0.155,0.1552,0.1527,0.1527,0.1527,0,0,0.1483,0.1499,0.1506,0.1516,0.1546,0.1545,0.1542,0.1542,0.1541,0.1523,0.1548,0.1556,0.1527,0.154,0.1544,0.1528,0.1534,0.1517,0.1495,0.153,0.1533,0.1535,0.155,0.1554,0.1507,0.1507,0.1507,0,0.1441,0.1467,0.1499,0.1519,0.1523,0.1536,0.1524,0.152,0.151,0.151,0.1511,0.1513,0.1517,0.1526,0.1527,0.1525,0.1543,0.1502,0.153,0.1533,0.1536,0.155,0.1555,0.1507,0.1507,0.1507,0.1507,0,0.1428,0.1448,0.1452,0.1478,0.1479,0.1472,0.1475,0.1462,0.1459,0.1459,0.146,0.1477,0.1481,0.1482,0.1499,0.1513,0.152,0.1537,0.1537,0.1538,0.1553,0.1557,0.1506,0.1506,0.1506,0.1506,0,0,0.1316,0.1417,0.1414,0.1448,0.1462,0.1462,0.1438,0.1428,0.1439,0.1413,0.1418,0.1425,0.1444,0.1451,0.1474,0.1496,0.1533,0.1518,0.152,0.1537,0.1601,0.1688,0.1701,0.1563,0.1564,0.1564,0.1603,0,0.1284,0.1323,0.1373,0.1379,0.1397,0.1414,0.1403,0.1402,0.1401,0.1405,0.1417,0.144,0.1429,0.1458,0.1469,0.1526,0.1545,0.1519,0.1592,0.1593,0.1676,0.171,0.1807,0.1858,0.1607,0.1608,0.1609,0,0.1249,0.1301,0.1305,0.1386,0.1391,0.1387,0.1397,0.1396,0.1408,0.1418,0.142,0.144,0.1454,0.1468,0.1513,0.15,0.1543,0.158,0.1583,0.1668,0.169,0.1817,0.1875,0.1841,0.1616,0.1615,0.1615,0,0.1176,0.1248,0.1259,0.1275,0.1348,0.1355,0.1377,0.1394,0.1414,0.1437,0.146,0.1462,0.1494,0.1519,0.1571,0.1551,0.1644,0.1629,0.1739,0.1744,0.1841,0.1855,0.1882,0.1679,0.1678,0.1678,0.1678,0,0.112,0.1144,0.1242,0.125,0.1284,0.1346,0.137,0.139,0.144,0.1468,0.1476,0.1506,0.1518,0.1563,0.1585,0.1681,0.1652,0.1744,0.1772,0.1843,0.1856,0.1842,0.1756,0.168,0.168,0.1679,0.1679,0,0.1042,0.1092,0.1141,0.1228,0.1252,0.128,0.1367,0.1396,0.1454,0.1489,0.1502,0.155,0.1625,0.1651,0.1724,0.1734,0.1793,0.1852,0.1926,0.1963,0.202,0.1929,0.1901,0.1874,0.1956,0.1959,0.1961,0,0.1008,0.1024,0.1108,0.1132,0.1175,0.1238,0.1272,0.1365,0.1406,0.1514,0.1529,0.1632,0.1698,0.1835,0.1923,0.2003,0.1913,0.2114,0.2097,0.205,0.1967,0.1853,0.1821,0.221,0.2214,0.2218,0.222,0,0.0976,0.0999,0.1045,0.108,0.1122,0.1176,0.1248,0.1292,0.1402,0.1467,0.157,0.1652,0.1843,0.1992,0.2138,0.2199,0.2066,0.2185,0.2127,0.2165,0.2049,0.203,0.2126,0.225,0.2247,0.2245,0.2243,0.2242,0.0954,0.0979,0.1024,0.106,0.1092,0.1126,0.1162,0.1257,0.1349,0.1466,0.1561,0.17,0.1972,0.2222,0.229,0.2454,0.2288,0.2435,0.2325,0.2211,0.2198,0.2355,0.2521,0.2519,0.2518,0.2517,0.2516,0,0.0944,0.0971,0.1005,0.1048,0.1058,0.1084,0.1154,0.1196,0.1298,0.1437,0.1554,0.183,0.2096,0.2311,0.2561,0.2565,0.2511,0.2524,0.2374,0.2332,0.2503,0.2533,0.2723,0.2723,0.2723,0.2723,0.2723,0.2723,0.0937,0.0964,0.0995,0.1021,0.1035,0.1049,0.108,0.1141,0.124,0.1404,0.1555,0.1691,0.1997,0.2335,0.2516,0.254,0.2376,0.2389,0.2243,0.2363,0.2346,0.2329,0.2342,0.2488,0.2487,0.2135,0.2132,0.2129]},{"header":{"parameterUnit":"m.s-1","parameterCategory":2,"la1":30.2991,"la2":30.254,"lo1":-89.0895,"lo2":-89.0444,"dy":0.0017,"dx":0.0017,"nx":28,"ny":28,"refTime":"2024-10-14T09:00:00:Z","depth":"0","parameterNumber":3,"parameterNumberName":"V-component_of_CURRENTS"},"data":[0,0,0,0,0,0,0,0,0,0,0,0,0,0,0,0,0,0,0,0,0,0,0,0,0,0,0,0,0,0,0,0,0,0,0,0,0,0,0,0,0,0,0,0,0,0,0,0,0,0,0,0,0,0,0,0,0,0,-0.0357,-0.0356,0,-0.0294,-0.0294,-0.0294,-0.0311,-0.0312,-0.0313,-0.0313,-0.0421,-0.0423,-0.0425,0,0,0,0,0,0,0,0,0,0,0,0,0,-0.051,-0.0508,-0.0357,-0.0356,-0.0354,-0.0294,-0.0294,-0.0294,-0.0311,-0.0312,-0.0313,-0.0313,-0.042,-0.0423,-0.0426,0,0,0,0,0,0,0,0,0,0,0,0,0,-0.0452,-0.0507,-0.0357,-0.035,-0.0348,-0.0294,-0.0294,-0.0294,-0.0311,-0.0312,-0.0313,-0.0314,-0.0419,-0.0423,-0.0426,-0.0429,0,0,-0.0437,-0.0438,0,0,0,0,0,0,0,0,-0.0456,-0.0448,-0.0353,-0.0351,-0.0348,-0.0305,-0.0387,-0.0345,-0.0311,-0.0333,-0.0313,-0.0314,-0.0392,-0.0398,-0.0392,-0.0434,-0.0439,-0.0437,-0.0439,-0.044,-0.0441,0,0,0,0,0,0,0,-0.046,-0.045,-0.034,-0.0351,-0.0348,-0.0356,-0.0349,-0.0379,-0.0368,-0.0331,-0.0331,-0.0311,-0.0394,-0.0389,-0.0396,-0.0441,-0.0437,-0.044,-0.0442,-0.0443,-0.0523,-0.0523,0,0,0,0,0,0,-0.045,-0.0454,-0.0342,-0.0337,-0.0397,-0.0352,-0.0345,-0.0324,-0.0363,-0.0367,-0.0311,-0.0312,-0.0383,-0.0391,-0.04,-0.0441,-0.044,-0.0444,-0.0446,-0.0523,-0.0523,-0.0523,0,0,0,0,0,0,-0.0453,-0.044,-0.0344,-0.0389,-0.0376,-0.0347,-0.0324,-0.0322,-0.0314,-0.0344,-0.0353,-0.0303,-0.0384,-0.0395,-0.0445,-0.0445,-0.0445,-0.0448,-0.0523,-0.0523,-0.0523,-0.0503,0,0,0,0,0,0,-0.0458,-0.0442,-0.0443,-0.0388,-0.0373,-0.0315,-0.0323,-0.032,-0.0297,-0.0299,-0.0341,-0.0352,-0.0385,-0.0439,-0.0448,-0.0449,-0.0451,-0.0523,-0.0523,-0.0523,-0.0503,-0.0502,-0.0501,0,0,0,0,0,-0.0464,-0.0463,-0.0444,-0.0431,-0.0368,-0.0313,-0.0308,-0.0296,-0.0296,-0.0293,-0.0335,-0.0351,-0.0445,-0.0443,-0.0453,-0.0455,-0.0523,-0.0523,-0.0523,-0.0504,-0.0502,-0.0501,0,0,0,0,0,0,-0.0502,-0.0461,-0.044,-0.0418,-0.0366,-0.0314,-0.0317,-0.0288,-0.0312,-0.0324,-0.0361,-0.0375,-0.0418,-0.0437,-0.0432,-0.0476,-0.0482,-0.0484,-0.0464,-0.0463,-0.0462,-0.0407,-0.0454,0,0,0,0,0,-0.0511,-0.0521,-0.0447,-0.0427,-0.0408,-0.0357,-0.0338,-0.031,-0.0307,-0.0316,-0.0343,-0.0381,-0.0423,-0.0444,-0.0482,-0.0507,-0.051,-0.0511,-0.051,-0.0509,-0.0471,-0.0508,-0.0507,-0.0523,-0.0523,-0.0523,0,0,-0.0507,-0.0496,-0.049,-0.044,-0.041,-0.0368,-0.0352,-0.0311,-0.0277,-0.0328,-0.0336,-0.0383,-0.043,-0.0467,-0.0485,-0.0484,-0.0506,-0.0509,-0.0508,-0.0469,-0.0508,-0.0506,-0.0505,-0.0523,-0.0523,-0.0523,0,0,-0.0512,-0.0503,-0.0508,-0.0476,-0.0424,-0.0383,-0.0364,-0.0306,-0.0296,-0.0288,-0.0332,-0.0375,-0.0417,-0.0456,-0.0481,-0.049,-0.0504,-0.0503,-0.045,-0.0488,-0.0487,-0.0485,-0.0485,-0.0484,-0.0497,-0.0497,-0.0497,0,-0.0498,-0.05,-0.0493,-0.0481,-0.0451,-0.0386,-0.0347,-0.0317,-0.0281,-0.027,-0.0289,-0.0348,-0.0405,-0.0441,-0.045,-0.0486,-0.0494,-0.0456,-0.0486,-0.0485,-0.0484,-0.0484,-0.0483,-0.0496,-0.0496,-0.0496,-0.0496,0,-0.0494,-0.0496,-0.0495,-0.0466,-0.0432,-0.039,-0.0326,-0.0296,-0.027,-0.0233,-0.025,-0.0319,-0.0346,-0.0381,-0.042,-0.0441,-0.0444,-0.0487,-0.0487,-0.0481,-0.0482,-0.0481,-0.0495,-0.0495,-0.0495,-0.0495,0,0,-0.0428,-0.0482,-0.0472,-0.0473,-0.042,-0.0375,-0.0332,-0.026,-0.0215,-0.0205,-0.0173,-0.025,-0.0261,-0.0288,-0.0349,-0.0379,-0.0402,-0.0418,-0.0421,-0.0411,-0.0454,-0.0465,-0.0465,-0.0458,-0.0458,-0.0457,-0.0456,0,-0.0406,-0.0415,-0.0434,-0.0398,-0.0387,-0.0342,-0.0302,-0.0235,-0.0188,-0.0146,-0.0177,-0.0186,-0.0232,-0.026,-0.0291,-0.0385,-0.0398,-0.0395,-0.0464,-0.0465,-0.0472,-0.0465,-0.0435,-0.0432,-0.0455,-0.0455,-0.0455,0,-0.0358,-0.0396,-0.0381,-0.0389,-0.0372,-0.0333,-0.0246,-0.0203,-0.0132,-0.0106,-0.009,-0.01,-0.0138,-0.0188,-0.0277,-0.0274,-0.0339,-0.0399,-0.0403,-0.0409,-0.0475,-0.0443,-0.043,-0.0487,-0.0454,-0.0454,-0.0454,0,-0.0309,-0.033,-0.0332,-0.0328,-0.0324,-0.0301,-0.0269,-0.0188,-0.0147,-0.008,-0.0044,-0.0061,-0.0091,-0.016,-0.0259,-0.0275,-0.0348,-0.0402,-0.0455,-0.0456,-0.0436,-0.0436,-0.0476,-0.0441,-0.0441,-0.0441,-0.0441,0,-0.0265,-0.0266,-0.0317,-0.0322,-0.0286,-0.0289,-0.0223,-0.0172,-0.0124,-0.0064,-0.0033,0.0001,-0.0088,-0.0128,-0.022,-0.032,-0.0321,-0.0417,-0.0456,-0.0429,-0.0428,-0.0483,-0.05,-0.0441,-0.0441,-0.0441,-0.0441,0,-0.0204,-0.0244,-0.0243,-0.0268,-0.027,-0.023,-0.0206,-0.0157,-0.0113,-0.0038,-0.0022,0.0025,-0.0015,-0.0086,-0.0208,-0.0284,-0.0413,-0.0418,-0.0355,-0.0386,-0.0492,-0.0509,-0.0591,-0.061,-0.0464,-0.0464,-0.0464,0,-0.0183,-0.0194,-0.0192,-0.0176,-0.0191,-0.0168,-0.0147,-0.0136,-0.0095,-0.0017,0.0018,0.0026,0.0067,-0.0072,-0.0213,-0.0335,-0.0411,-0.04,-0.0434,-0.0467,-0.0515,-0.0579,-0.0593,-0.0396,-0.0396,-0.0396,-0.0396,0,-0.0164,-0.0146,-0.0143,-0.0113,-0.0096,-0.0072,-0.0061,-0.0038,-0.0013,0.0051,0.0123,0.016,0.0068,-0.0009,-0.0171,-0.0281,-0.0429,-0.0399,-0.0462,-0.0468,-0.051,-0.0557,-0.0406,-0.0393,-0.0393,-0.0393,-0.0394,-0.0394,-0.0124,-0.0098,-0.0086,-0.0038,-0.001,0.0023,0.0061,0.0069,0.0126,0.023,0.0211,0.0315,0.0194,-0.0007,-0.018,-0.0414,-0.0432,-0.047,-0.0485,-0.0546,-0.057,-0.039,-0.0417,-0.0417,-0.0417,-0.0418,-0.0418,0,-0.0094,-0.0078,-0.003,0.0027,0.0087,0.0079,0.0122,0.0166,0.0246,0.0335,0.0404,0.0454,0.0286,0.0076,-0.0234,-0.0438,-0.0552,-0.0538,-0.0606,-0.0615,-0.0472,-0.0475,-0.0481,-0.0481,-0.0481,-0.0481,-0.0481,-0.0481,-0.0076,-0.0043,-0.002,0.0081,0.0134,0.0204,0.0242,0.0317,0.0395,0.0557,0.0667,0.0721,0.0657,0.0074,-0.0335,-0.0473,-0.0633,-0.0689,-0.0749,-0.0629,-0.0625,-0.062,-0.0629,-0.0668,-0.0668,-0.0892,-0.0894,-0.0895]}],[{"header":{"parameterUnit":"m.s-1","parameterCategory":2,"la1":30.2991,"la2":30.254,"lo1":-89.0895,"lo2":-89.0444,"dy":0.0017,"dx":0.0017,"nx":28,"ny":28,"refTime":"2024-10-14T09:00:00:Z","depth":"2","parameterNumber":2,"parameterNumberName":"U-component_of_CURRENTS"},"data":[0,0,0,0,0,0,0,0,0,0,0,0,0,0,0,0,0,0,0,0,0,0,0,0,0,0,0,0,0,0,0,0,0,0,0,0,0,0,0,0,0,0,0,0,0,0,0,0,0,0,0,0,0,0,0,0,0,0,-0.0323,-0.0324,0,-0.0287,-0.0286,-0.0285,-0.0173,-0.0171,-0.017,-0.0168,-0.0213,-0.0216,-0.0218,0,0,0,0,0,0,0,0,0,0,0,0,0,-0.0322,-0.0322,-0.0323,-0.0324,-0.0324,-0.0287,-0.0286,-0.0285,-0.0173,-0.0171,-0.0169,-0.0167,-0.0212,-0.0215,-0.0219,0,0,0,0,0,0,0,0,0,0,0,0,0,-0.0299,-0.0321,-0.0323,-0.0271,-0.0267,-0.0288,-0.0286,-0.0284,-0.0174,-0.0171,-0.0169,-0.0166,-0.0211,-0.0215,-0.0219,-0.0293,0,0,-0.0231,-0.0233,0,0,0,0,0,0,0,0,-0.03,-0.0298,-0.0278,-0.0275,-0.027,-0.024,-0.0302,-0.0294,-0.0174,-0.0199,-0.0168,-0.0165,-0.0238,-0.0239,-0.0223,-0.0295,-0.0297,-0.0232,-0.0234,-0.0236,-0.0237,0,0,0,0,0,0,0,-0.0302,-0.0299,-0.0299,-0.0279,-0.0274,-0.0259,-0.0252,-0.0299,-0.0227,-0.0197,-0.0191,-0.0202,-0.0234,-0.022,-0.0224,-0.0297,-0.0232,-0.0235,-0.0238,-0.0239,-0.0335,-0.0335,0,0,0,0,0,0,-0.0327,-0.0301,-0.0301,-0.0299,-0.029,-0.0262,-0.0253,-0.0245,-0.0224,-0.0221,-0.0205,-0.0198,-0.0214,-0.0219,-0.0226,-0.0218,-0.0236,-0.024,-0.0242,-0.0335,-0.0335,-0.0335,0,0,0,0,0,0,-0.0327,-0.0326,-0.0302,-0.0308,-0.0305,-0.0265,-0.0256,-0.0245,-0.0193,-0.0231,-0.0226,-0.016,-0.0212,-0.022,-0.0229,-0.0223,-0.0242,-0.0245,-0.0335,-0.0335,-0.0335,-0.0265,0,0,0,0,0,0,-0.0326,-0.0326,-0.0291,-0.0309,-0.0306,-0.0271,-0.0259,-0.0247,-0.0211,-0.02,-0.0194,-0.0196,-0.0211,-0.0222,-0.0233,-0.0229,-0.0248,-0.0335,-0.0335,-0.0335,-0.0267,-0.0263,-0.0259,0,0,0,0,0,-0.0326,-0.03,-0.0289,-0.0287,-0.027,-0.0271,-0.0264,-0.0224,-0.0211,-0.017,-0.0176,-0.0194,-0.0231,-0.0226,-0.0238,-0.0235,-0.0335,-0.0335,-0.0335,-0.0269,-0.0264,-0.0259,0,0,0,0,0,0,-0.0206,-0.0288,-0.0275,-0.025,-0.0242,-0.0254,-0.0209,-0.0213,-0.0183,-0.0159,-0.0199,-0.0202,-0.021,-0.0239,-0.0232,-0.0264,-0.0287,-0.0289,-0.0232,-0.0228,-0.0224,-0.018,-0.0252,0,0,0,0,0,-0.0189,-0.0237,-0.0251,-0.0226,-0.021,-0.0207,-0.0193,-0.0175,-0.0177,-0.0156,-0.0167,-0.0188,-0.023,-0.0236,-0.0263,-0.0288,-0.0284,-0.0295,-0.029,-0.0286,-0.026,-0.0239,-0.0229,-0.0336,-0.0336,-0.0336,0,0,-0.0142,-0.019,-0.0208,-0.0214,-0.0191,-0.0179,-0.0185,-0.0148,-0.0142,-0.0177,-0.0142,-0.0173,-0.0234,-0.0245,-0.0252,-0.0261,-0.0259,-0.0287,-0.0283,-0.0258,-0.0237,-0.0227,-0.0217,-0.0336,-0.0336,-0.0336,0,0,-0.0096,-0.0094,-0.0111,-0.0127,-0.0121,-0.0119,-0.0109,-0.0098,-0.0072,-0.0066,-0.0104,-0.0127,-0.016,-0.0208,-0.0244,-0.0244,-0.024,-0.025,-0.019,-0.017,-0.016,-0.0151,-0.0145,-0.0136,-0.0244,-0.0244,-0.0244,0,-0.0031,-0.0044,-0.0097,-0.0109,-0.0105,-0.0097,-0.0064,-0.0064,-0.0062,-0.007,-0.0031,-0.009,-0.0148,-0.0205,-0.0195,-0.0235,-0.0206,-0.0202,-0.016,-0.0151,-0.0143,-0.0139,-0.013,-0.0241,-0.0241,-0.0242,-0.0242,0,-0.0034,-0.0005,0.0,-0.0038,-0.0029,-0.0001,-0.0017,0.0008,0.0035,0.0006,0.0008,-0.0025,-0.0054,-0.0094,-0.0142,-0.0139,-0.0132,-0.0157,-0.0162,-0.0127,-0.0127,-0.0118,-0.0236,-0.0237,-0.0238,-0.0239,0,0,-0.0016,-0.0003,0.0,0.002,0.0013,0.0011,0.0034,0.0036,0.0024,0.0062,0.0097,0.0009,0.0018,-0.002,-0.0069,-0.006,-0.0011,-0.006,-0.006,-0.0035,0.0061,0.0149,0.0166,0.0006,0.0008,0.001,0.0035,0,0.0021,0.0028,0.0027,0.0071,0.0088,0.0093,0.0085,0.0063,0.0079,0.0108,0.0094,0.0104,0.0035,0.0068,0.0062,0.0008,0.002,-0.0014,0.0008,0.0008,0.0098,0.0181,0.0138,0.0168,0.0043,0.0044,0.0045,0,0.0029,0.0001,0.0056,0.01,0.0115,0.0148,0.015,0.0141,0.0131,0.0161,0.0197,0.0207,0.0214,0.0206,0.0163,0.0166,0.0134,0.0101,0.01,0.0174,0.0114,0.0112,0.0188,0.0059,0.0058,0.0057,0.0056,0,0.0014,0.0064,0.011,0.0098,0.0101,0.0159,0.0198,0.0158,0.0169,0.0239,0.0305,0.0301,0.0369,0.0345,0.0268,0.025,0.0262,0.0207,0.0247,0.025,0.0213,0.0212,0.0218,0.0218,0.0218,0.0218,0.0218,0,0.0036,0.0087,0.0116,0.0094,0.0149,0.0154,0.023,0.0239,0.0295,0.0318,0.0356,0.0434,0.0426,0.0427,0.0346,0.0339,0.0314,0.03,0.0288,0.0234,0.0234,0.0133,0.0123,0.0219,0.0219,0.0219,0.0219,0,0.0077,0.0092,0.0123,0.0127,0.0155,0.0191,0.0333,0.0341,0.0382,0.0471,0.0536,0.0571,0.0587,0.0534,0.0489,0.0446,0.0409,0.04,0.0344,0.033,0.0364,0.0356,0.0487,0.0491,0.0494,0.0497,0.0499,0,0.0137,0.0135,0.0129,0.0159,0.0215,0.0291,0.0327,0.0398,0.0417,0.0528,0.0564,0.0663,0.0698,0.068,0.066,0.061,0.0497,0.0519,0.0479,0.043,0.0403,0.039,0.0379,0.0422,0.0424,0.0425,0.0426,0,0.0199,0.0192,0.0166,0.0179,0.0259,0.0324,0.0415,0.0462,0.0505,0.0585,0.066,0.0733,0.0801,0.0772,0.0758,0.0696,0.0539,0.0551,0.0515,0.039,0.038,0.035,0.0338,0.0437,0.0436,0.0435,0.0434,0.0434,0.0246,0.0242,0.0179,0.0246,0.0294,0.0344,0.0433,0.0481,0.0542,0.0636,0.068,0.075,0.0697,0.0719,0.0689,0.0713,0.0734,0.0609,0.0599,0.059,0.0608,0.0607,0.0708,0.0708,0.0709,0.0709,0.0709,0,0.0198,0.0248,0.0276,0.0289,0.034,0.0391,0.0443,0.0476,0.0557,0.0632,0.0711,0.0613,0.0616,0.0598,0.0702,0.0726,0.0666,0.0644,0.0514,0.0506,0.0498,0.0505,0.0581,0.058,0.058,0.0579,0,0,0.0188,0.0194,0.0209,0.0313,0.0378,0.0445,0.0505,0.0528,0.0548,0.0584,0.0626,0.061,0.06,0.054,0.0546,0.0605,0.0549,0.0594,0.07,0.0541,0.0532,0.0488,0.0494,0,0,0,0,0]},{"header":{"parameterUnit":"m.s-1","parameterCategory":2,"la1":30.2991,"la2":30.254,"lo1":-89.0895,"lo2":-89.0444,"dy":0.0017,"dx":0.0017,"nx":28,"ny":28,"refTime":"2024-10-14T09:00:00:Z","depth":"2","parameterNumber":3,"parameterNumberName":"V-component_of_CURRENTS"},"data":[0,0,0,0,0,0,0,0,0,0,0,0,0,0,0,0,0,0,0,0,0,0,0,0,0,0,0,0,0,0,0,0,0,0,0,0,0,0,0,0,0,0,0,0,0,0,0,0,0,0,0,0,0,0,0,0,0,0,-0.011,-0.0109,0,-0.0122,-0.0123,-0.0123,-0.0186,-0.0187,-0.0188,-0.0189,-0.0228,-0.0229,-0.0229,0,0,0,0,0,0,0,0,0,0,0,0,0,-0.0134,-0.0134,-0.011,-0.0109,-0.0109,-0.0122,-0.0123,-0.0123,-0.0186,-0.0187,-0.0188,-0.0189,-0.0228,-0.0229,-0.0229,0,0,0,0,0,0,0,0,0,0,0,0,0,-0.0138,-0.0134,-0.011,-0.0137,-0.0139,-0.0122,-0.0123,-0.0123,-0.0185,-0.0187,-0.0188,-0.019,-0.0228,-0.0229,-0.0229,-0.0202,0,0,-0.023,-0.023,0,0,0,0,0,0,0,0,-0.0138,-0.0138,-0.0134,-0.0135,-0.0138,-0.0149,-0.0145,-0.0149,-0.0185,-0.0174,-0.0189,-0.019,-0.0199,-0.0202,-0.0209,-0.0204,-0.0206,-0.023,-0.023,-0.023,-0.023,0,0,0,0,0,0,0,-0.0137,-0.0138,-0.0121,-0.0133,-0.0135,-0.0146,-0.0149,-0.0147,-0.0184,-0.0175,-0.0178,-0.017,-0.0202,-0.0209,-0.0211,-0.0206,-0.023,-0.023,-0.023,-0.023,-0.025,-0.025,0,0,0,0,0,0,-0.0123,-0.0137,-0.012,-0.012,-0.0134,-0.0144,-0.0148,-0.0148,-0.0183,-0.0188,-0.0169,-0.0173,-0.0208,-0.021,-0.0212,-0.0254,-0.023,-0.023,-0.023,-0.025,-0.025,-0.0251,0,0,0,0,0,0,-0.0123,-0.0121,-0.0119,-0.0124,-0.0124,-0.0142,-0.0142,-0.0148,-0.0159,-0.0177,-0.0184,-0.0174,-0.0209,-0.0212,-0.0258,-0.0254,-0.023,-0.0231,-0.0249,-0.025,-0.025,-0.0292,0,0,0,0,0,0,-0.0124,-0.0122,-0.0112,-0.0123,-0.0123,-0.011,-0.014,-0.0147,-0.0148,-0.0154,-0.0183,-0.0188,-0.021,-0.0258,-0.0258,-0.0253,-0.0231,-0.0249,-0.025,-0.025,-0.029,-0.0294,-0.0297,0,0,0,0,0,-0.0125,-0.0131,-0.0111,-0.0108,-0.011,-0.0109,-0.0111,-0.0132,-0.0147,-0.0149,-0.0203,-0.0187,-0.0261,-0.026,-0.026,-0.0255,-0.0249,-0.0249,-0.025,-0.0288,-0.0293,-0.0297,0,0,0,0,0,0,-0.0162,-0.0137,-0.0117,-0.0119,-0.0102,-0.0118,-0.0144,-0.0125,-0.0164,-0.0191,-0.0208,-0.0218,-0.0253,-0.0245,-0.0243,-0.0261,-0.0244,-0.0245,-0.0272,-0.0277,-0.028,-0.0287,-0.0231,0,0,0,0,0,-0.0151,-0.0139,-0.0115,-0.0115,-0.0126,-0.0123,-0.0124,-0.0122,-0.0154,-0.0172,-0.0192,-0.0221,-0.0251,-0.0261,-0.0283,-0.0292,-0.0285,-0.0283,-0.0286,-0.0289,-0.0294,-0.0274,-0.0276,-0.0253,-0.0253,-0.0253,0,0,-0.016,-0.0148,-0.0138,-0.0118,-0.0138,-0.0139,-0.0134,-0.0147,-0.0136,-0.0169,-0.0206,-0.0237,-0.0259,-0.0294,-0.0303,-0.0289,-0.0299,-0.029,-0.0293,-0.0296,-0.0275,-0.0278,-0.028,-0.0254,-0.0254,-0.0254,0,0,-0.0189,-0.0181,-0.0181,-0.0169,-0.0162,-0.016,-0.0155,-0.016,-0.0167,-0.0186,-0.0218,-0.0256,-0.0283,-0.0307,-0.032,-0.0343,-0.0323,-0.0335,-0.0353,-0.0334,-0.0336,-0.0337,-0.036,-0.0363,-0.0329,-0.033,-0.033,0,-0.0176,-0.019,-0.0181,-0.0186,-0.0177,-0.0169,-0.0165,-0.017,-0.0175,-0.0181,-0.0207,-0.0269,-0.029,-0.0322,-0.0355,-0.0349,-0.0353,-0.0339,-0.0339,-0.0339,-0.034,-0.0363,-0.0366,-0.0332,-0.0331,-0.0331,-0.0331,0,-0.02,-0.0208,-0.0235,-0.0221,-0.0207,-0.0216,-0.02,-0.0205,-0.0215,-0.0204,-0.0241,-0.0292,-0.0322,-0.033,-0.0367,-0.0375,-0.0383,-0.0351,-0.0329,-0.0345,-0.0369,-0.0371,-0.0335,-0.0334,-0.0333,-0.0333,0,0,-0.0173,-0.0221,-0.0234,-0.0233,-0.022,-0.0215,-0.0221,-0.0208,-0.0209,-0.0235,-0.0233,-0.0315,-0.0333,-0.035,-0.0374,-0.0378,-0.0411,-0.0381,-0.0379,-0.0408,-0.0406,-0.0402,-0.0405,-0.0378,-0.0378,-0.0378,-0.0431,0,-0.0184,-0.0211,-0.0216,-0.0231,-0.0248,-0.0233,-0.0226,-0.0208,-0.0215,-0.0218,-0.0255,-0.0274,-0.0336,-0.0354,-0.0377,-0.0406,-0.0414,-0.0402,-0.0383,-0.0383,-0.038,-0.0405,-0.0323,-0.0362,-0.0433,-0.0434,-0.0434,0,-0.0194,-0.0216,-0.0232,-0.0238,-0.0242,-0.0234,-0.0223,-0.0207,-0.0207,-0.0213,-0.0247,-0.0255,-0.0311,-0.0322,-0.0399,-0.0394,-0.0409,-0.0423,-0.0424,-0.0405,-0.0382,-0.0351,-0.0363,-0.0437,-0.0437,-0.0437,-0.0436,0,-0.0189,-0.0222,-0.0235,-0.0234,-0.0236,-0.0236,-0.0232,-0.0219,-0.0197,-0.0203,-0.0186,-0.025,-0.0271,-0.0313,-0.0393,-0.0386,-0.0453,-0.0423,-0.0432,-0.0433,-0.0351,-0.0345,-0.0427,-0.0427,-0.0427,-0.0427,-0.0427,0,-0.0192,-0.0208,-0.0246,-0.0255,-0.0242,-0.0243,-0.023,-0.0222,-0.0206,-0.0174,-0.0188,-0.0175,-0.0265,-0.031,-0.0376,-0.0448,-0.0441,-0.045,-0.044,-0.0368,-0.0362,-0.0405,-0.0402,-0.0429,-0.0429,-0.0428,-0.0428,0,-0.0186,-0.0215,-0.022,-0.0243,-0.0241,-0.0231,-0.0213,-0.0205,-0.019,-0.0145,-0.0134,-0.0137,-0.0206,-0.0294,-0.037,-0.0418,-0.0474,-0.0478,-0.0422,-0.0404,-0.0473,-0.0471,-0.0492,-0.0492,-0.0492,-0.0492,-0.0493,0,-0.0192,-0.021,-0.0203,-0.0188,-0.02,-0.0201,-0.019,-0.0193,-0.0173,-0.012,-0.0084,-0.0112,-0.0099,-0.0238,-0.0338,-0.044,-0.0474,-0.0426,-0.0379,-0.0488,-0.0477,-0.0475,-0.0473,-0.0304,-0.0303,-0.0302,-0.0301,0,-0.02,-0.0189,-0.0178,-0.0149,-0.0141,-0.0128,-0.0124,-0.0102,-0.0092,-0.0023,0.0045,0.0076,-0.0033,-0.0107,-0.0261,-0.0309,-0.0415,-0.0404,-0.0511,-0.03,-0.0315,-0.0302,-0.0306,-0.029,-0.0291,-0.0292,-0.0293,-0.0293,-0.0177,-0.016,-0.0134,-0.0094,-0.0068,-0.0044,-0.0016,0.0004,0.0075,0.0193,0.0171,0.0234,0.0051,-0.0088,-0.0203,-0.0309,-0.0316,-0.0335,-0.0337,-0.034,-0.0308,-0.0321,-0.0296,-0.0297,-0.0298,-0.0298,-0.0299,0,-0.0121,-0.0125,-0.009,-0.0029,0.0025,0.0013,0.0055,0.0106,0.0217,0.0283,0.0384,0.0275,0.02,0.0,-0.0114,-0.0208,-0.0191,-0.0246,-0.0205,-0.0213,-0.0221,-0.0182,-0.0138,-0.0138,-0.0138,-0.0139,0,0,-0.0096,-0.0061,-0.0047,0.0044,0.0086,0.0157,0.0192,0.0285,0.035,0.0461,0.0487,0.0464,0.0214,0.0117,-0.0013,-0.0058,-0.0103,-0.0055,-0.0163,-0.0101,-0.0108,-0.0241,-0.0186,0,0,0,0,0]}],[{"header":{"parameterUnit":"m.s-1","parameterCategory":2,"la1":30.2991,"la2":30.254,"lo1":-89.0895,"lo2":-89.0444,"dy":0.0017,"dx":0.0017,"nx":28,"ny":28,"refTime":"2024-10-14T09:00:00:Z","depth":"4","parameterNumber":2,"parameterNumberName":"U-component_of_CURRENTS"},"data":[0,0,0,0,0,0,0,0,0,0,0,0,0,0,0,0,0,0,0,0,0,0,0,0,0,0,0,0,0,0,0,0,0,0,0,0,0,0,0,0,0,0,0,0,0,0,0,0,0,0,0,0,0,0,0,0,0,0,-0.0451,-0.0452,0,-0.044,-0.044,-0.044,-0.0425,-0.0425,-0.0425,-0.0425,-0.0515,-0.0518,-0.052,0,0,0,0,0,0,0,0,0,0,0,0,0,-0.0463,-0.0463,-0.0451,-0.0452,-0.0452,-0.044,-0.044,-0.044,-0.0425,-0.0425,-0.0425,-0.0425,-0.0515,-0.0517,-0.052,0,0,0,0,0,0,0,0,0,0,0,0,0,-0.0452,-0.0462,-0.0451,-0.0445,-0.0445,-0.0441,-0.044,-0.0439,-0.0425,-0.0425,-0.0425,-0.0425,-0.0514,-0.0517,-0.0521,-0.0541,0,0,-0.0532,-0.0533,0,0,0,0,0,0,0,0,-0.0453,-0.0451,-0.0446,-0.0446,-0.0445,-0.0437,-0.0478,-0.048,-0.0425,-0.0429,-0.0425,-0.0425,-0.0501,-0.0505,-0.0497,-0.0545,-0.0549,-0.0532,-0.0534,-0.0535,-0.0536,0,0,0,0,0,0,0,-0.0454,-0.0452,-0.0444,-0.0446,-0.0446,-0.0445,-0.0443,-0.0477,-0.0464,-0.0428,-0.0428,-0.0432,-0.0501,-0.0493,-0.0499,-0.055,-0.0532,-0.0535,-0.0537,-0.0538,-0.066,-0.0661,0,0,0,0,0,0,-0.0462,-0.0453,-0.0444,-0.0444,-0.0453,-0.0445,-0.0443,-0.0437,-0.0461,-0.0465,-0.0432,-0.0432,-0.0487,-0.0495,-0.0503,-0.0587,-0.0535,-0.0539,-0.0541,-0.0659,-0.066,-0.0662,0,0,0,0,0,0,-0.0462,-0.046,-0.0444,-0.0451,-0.045,-0.0445,-0.0438,-0.0437,-0.0434,-0.0464,-0.0469,-0.0433,-0.0488,-0.0498,-0.0526,-0.0589,-0.054,-0.0544,-0.0658,-0.066,-0.0661,-0.072,0,0,0,0,0,0,-0.0462,-0.046,-0.0449,-0.0451,-0.045,-0.0454,-0.0439,-0.0436,-0.0438,-0.0437,-0.0466,-0.0474,-0.0488,-0.052,-0.0529,-0.0593,-0.0546,-0.0656,-0.0659,-0.0661,-0.0716,-0.0723,-0.0729,0,0,0,0,0,-0.0462,-0.0447,-0.0448,-0.0447,-0.0437,-0.0455,-0.0454,-0.0449,-0.0438,-0.0445,-0.045,-0.0473,-0.0541,-0.0523,-0.0534,-0.06,-0.0655,-0.0658,-0.066,-0.0713,-0.0722,-0.0729,0,0,0,0,0,0,-0.0449,-0.0445,-0.0445,-0.043,-0.045,-0.0454,-0.0452,-0.0453,-0.0457,-0.0459,-0.0474,-0.0483,-0.0536,-0.0548,-0.0527,-0.0638,-0.0609,-0.0613,-0.0645,-0.0653,-0.066,-0.0665,-0.0549,0,0,0,0,0,-0.0442,-0.0422,-0.0442,-0.043,-0.0443,-0.0449,-0.0451,-0.0459,-0.0469,-0.0469,-0.05,-0.0526,-0.0554,-0.0583,-0.061,-0.0666,-0.0638,-0.0718,-0.0724,-0.0729,-0.0739,-0.0747,-0.0755,-0.067,-0.067,-0.067,0,0,-0.0437,-0.0427,-0.0419,-0.0425,-0.0435,-0.0455,-0.045,-0.0467,-0.0484,-0.0483,-0.052,-0.0548,-0.0568,-0.0627,-0.0656,-0.0649,-0.0728,-0.0733,-0.0737,-0.0744,-0.075,-0.0758,-0.0766,-0.0672,-0.0671,-0.0671,0,0,-0.042,-0.0412,-0.04,-0.0417,-0.044,-0.0456,-0.0466,-0.0499,-0.0513,-0.0555,-0.0556,-0.0602,-0.0664,-0.0687,-0.0702,-0.0756,-0.0752,-0.0793,-0.0847,-0.0854,-0.0861,-0.0867,-0.0792,-0.0791,-0.0807,-0.0808,-0.0808,0,-0.0416,-0.0398,-0.0405,-0.0409,-0.0423,-0.046,-0.0477,-0.05,-0.054,-0.0557,-0.058,-0.0658,-0.0688,-0.0733,-0.0773,-0.0775,-0.0756,-0.0818,-0.0862,-0.0868,-0.0873,-0.0795,-0.0794,-0.0811,-0.081,-0.081,-0.081,0,-0.0397,-0.0392,-0.0394,-0.0407,-0.043,-0.0452,-0.05,-0.0537,-0.0577,-0.0604,-0.0674,-0.0717,-0.077,-0.0802,-0.0818,-0.0886,-0.0848,-0.0859,-0.0843,-0.0885,-0.0799,-0.0796,-0.0815,-0.0814,-0.0813,-0.0812,0,0,-0.038,-0.0378,-0.0383,-0.0386,-0.0432,-0.0452,-0.0498,-0.0547,-0.0561,-0.0653,-0.0685,-0.0781,-0.083,-0.0852,-0.0889,-0.0923,-0.0942,-0.0937,-0.0936,-0.086,-0.0912,-0.0762,-0.0743,-0.0982,-0.0983,-0.0984,-0.0818,0,-0.0372,-0.0364,-0.0374,-0.0395,-0.0408,-0.0456,-0.0494,-0.0545,-0.059,-0.0639,-0.0716,-0.0776,-0.084,-0.0893,-0.094,-0.0951,-0.0947,-0.0982,-0.0885,-0.088,-0.0742,-0.0741,-0.0988,-0.0816,-0.0815,-0.0814,-0.0814,0,-0.0367,-0.0354,-0.0363,-0.0384,-0.0398,-0.0428,-0.0482,-0.0529,-0.0598,-0.0644,-0.0728,-0.0775,-0.0868,-0.091,-0.0947,-0.0979,-0.0959,-0.0949,-0.0942,-0.0787,-0.0727,-0.0777,-0.0808,-0.0809,-0.0809,-0.0809,-0.081,0,-0.0353,-0.0358,-0.0357,-0.0365,-0.04,-0.0426,-0.0477,-0.0537,-0.0571,-0.0667,-0.069,-0.0788,-0.0836,-0.0881,-0.0888,-0.0941,-0.0865,-0.0914,-0.0726,-0.0711,-0.0871,-0.0867,-0.0899,-0.0899,-0.09,-0.09,-0.0901,0,-0.0345,-0.0349,-0.035,-0.0351,-0.0367,-0.0424,-0.0467,-0.0519,-0.059,-0.0595,-0.0718,-0.0705,-0.0847,-0.0817,-0.0848,-0.0751,-0.0823,-0.0718,-0.0672,-0.0889,-0.089,-0.0864,-0.0862,-0.0894,-0.0895,-0.0897,-0.0898,0,-0.0346,-0.0342,-0.0336,-0.0352,-0.0361,-0.0395,-0.0469,-0.0487,-0.0573,-0.0577,-0.0619,-0.0658,-0.0622,-0.0656,-0.0656,-0.0646,-0.0598,-0.0525,-0.0675,-0.0643,-0.0445,-0.0449,-0.0331,-0.0324,-0.0319,-0.0314,-0.0311,0,-0.0335,-0.0337,-0.0327,-0.0316,-0.0327,-0.0379,-0.0403,-0.0493,-0.0492,-0.0498,-0.0469,-0.0445,-0.0453,-0.0325,-0.0383,-0.0353,-0.0359,-0.0318,-0.0483,-0.0426,-0.0394,-0.0406,-0.0416,-0.0302,-0.0301,-0.0299,-0.0298,0,-0.0323,-0.033,-0.0318,-0.029,-0.0295,-0.0302,-0.0331,-0.0334,-0.0392,-0.0425,-0.0327,-0.0298,-0.0197,-0.0211,-0.016,-0.0157,-0.037,-0.0263,-0.0277,-0.0432,-0.039,-0.0366,-0.0382,-0.0279,-0.0282,-0.0284,-0.0285,0,-0.0313,-0.0302,-0.0282,-0.0261,-0.025,-0.0224,-0.0262,-0.0235,-0.0258,-0.0258,-0.018,-0.0153,-0.0146,-0.0091,-0.0044,-0.003,-0.007,-0.0117,-0.0141,-0.0162,-0.019,-0.0117,0.0133,0,0,0,0,0,-0.0291,-0.0272,-0.0247,-0.0209,-0.0195,-0.019,-0.0189,-0.0224,-0.0237,-0.0146,-0.0182,-0.0085,-0.0015,0.0005,0.0047,0.0032,-0.0078,0.0084,-0.0149,-0.0175,-0.0197,-0.0251,0,0,0,0,0,0,-0.0275,-0.0252,-0.0233,-0.0168,-0.014,-0.0121,-0.013,-0.0139,-0.0105,-0.0108,-0.0078,-0.0052,-0.0003,-0.0036,0.0057,0.0065,-0.0071,0.0108,0.011,-0.0163,-0.0183,-0.02,-0.0263,0,0,0,0,0]},{"header":{"parameterUnit":"m.s-1","parameterCategory":2,"la1":30.2991,"la2":30.254,"lo1":-89.0895,"lo2":-89.0444,"dy":0.0017,"dx":0.0017,"nx":28,"ny":28,"refTime":"2024-10-14T09:00:00:Z","depth":"4","parameterNumber":3,"parameterNumberName":"V-component_of_CURRENTS"},"data":[0,0,0,0,0,0,0,0,0,0,0,0,0,0,0,0,0,0,0,0,0,0,0,0,0,0,0,0,0,0,0,0,0,0,0,0,0,0,0,0,0,0,0,0,0,0,0,0,0,0,0,0,0,0,0,0,0,0,-0.0086,-0.0086,0,-0.0113,-0.0113,-0.0113,-0.0098,-0.0097,-0.0097,-0.0096,-0.0125,-0.0127,-0.0128,0,0,0,0,0,0,0,0,0,0,0,0,0,0.0009,0.0007,-0.0086,-0.0086,-0.0087,-0.0113,-0.0113,-0.0113,-0.0098,-0.0097,-0.0096,-0.0096,-0.0125,-0.0126,-0.0128,0,0,0,0,0,0,0,0,0,0,0,0,0,-0.0027,0.0006,-0.0086,-0.0082,-0.0082,-0.0113,-0.0113,-0.0114,-0.0098,-0.0097,-0.0096,-0.0095,-0.0124,-0.0126,-0.0128,-0.0165,0,0,-0.0135,-0.0136,0,0,0,0,0,0,0,0,-0.0025,-0.003,-0.0082,-0.0082,-0.0082,-0.0101,-0.009,-0.0131,-0.0099,-0.0092,-0.0096,-0.0095,-0.0118,-0.0121,-0.0128,-0.0167,-0.0168,-0.0136,-0.0137,-0.0138,-0.0138,0,0,0,0,0,0,0,-0.0022,-0.0029,-0.0097,-0.0083,-0.0083,-0.0068,-0.0072,-0.0098,-0.0112,-0.0093,-0.0092,-0.0095,-0.0118,-0.0126,-0.0129,-0.0168,-0.0135,-0.0137,-0.0139,-0.014,-0.023,-0.0231,0,0,0,0,0,0,-0.0022,-0.0027,-0.0096,-0.0098,-0.005,-0.0071,-0.0076,-0.0096,-0.0111,-0.0112,-0.0096,-0.0094,-0.0123,-0.0126,-0.013,-0.0178,-0.0138,-0.014,-0.0141,-0.0229,-0.023,-0.0231,0,0,0,0,0,0,-0.002,-0.0029,-0.0095,-0.0061,-0.0069,-0.0074,-0.0097,-0.0097,-0.0107,-0.0113,-0.0114,-0.0105,-0.0122,-0.0127,-0.0166,-0.0179,-0.0141,-0.0143,-0.0228,-0.0229,-0.0231,-0.0272,0,0,0,0,0,0,-0.0018,-0.0028,-0.0037,-0.0062,-0.0071,-0.0125,-0.0098,-0.0099,-0.011,-0.0108,-0.0122,-0.0123,-0.0122,-0.0163,-0.0169,-0.0181,-0.0145,-0.0226,-0.0228,-0.023,-0.0269,-0.0275,-0.028,0,0,0,0,0,-0.0015,-0.0037,-0.0038,-0.0045,-0.0085,-0.0126,-0.013,-0.0128,-0.0112,-0.013,-0.0139,-0.0123,-0.0178,-0.0167,-0.0173,-0.0186,-0.0225,-0.0228,-0.023,-0.0267,-0.0274,-0.0279,0,0,0,0,0,0,0.0001,-0.0039,-0.004,-0.0072,-0.01,-0.0123,-0.0131,-0.0135,-0.0156,-0.015,-0.015,-0.0154,-0.0191,-0.0188,-0.0175,-0.0217,-0.0194,-0.0198,-0.022,-0.0226,-0.0231,-0.0219,-0.0147,0,0,0,0,0,-0.0001,-0.003,-0.0063,-0.009,-0.0101,-0.0117,-0.0129,-0.0138,-0.016,-0.0166,-0.0176,-0.0185,-0.0207,-0.0216,-0.0236,-0.0268,-0.0242,-0.0276,-0.0281,-0.0285,-0.0279,-0.0252,-0.0253,-0.0239,-0.0239,-0.0239,0,0,0.0001,-0.0026,-0.0039,-0.0088,-0.0101,-0.0134,-0.0121,-0.0151,-0.0183,-0.0169,-0.0207,-0.0212,-0.0222,-0.0256,-0.027,-0.0254,-0.028,-0.0288,-0.0292,-0.0283,-0.0254,-0.0255,-0.0256,-0.0241,-0.0241,-0.024,0,0,-0.0016,-0.0037,-0.0064,-0.0092,-0.0127,-0.0147,-0.0159,-0.0191,-0.0207,-0.0258,-0.0244,-0.0266,-0.03,-0.0306,-0.0314,-0.0364,-0.0313,-0.0354,-0.0365,-0.034,-0.034,-0.034,-0.032,-0.0318,-0.035,-0.035,-0.035,0,-0.0011,-0.0054,-0.0078,-0.0112,-0.0134,-0.0155,-0.019,-0.022,-0.0264,-0.0284,-0.0278,-0.0322,-0.033,-0.0362,-0.0364,-0.0376,-0.0338,-0.0342,-0.0344,-0.0344,-0.0343,-0.0322,-0.0319,-0.0352,-0.0352,-0.0352,-0.0351,0,-0.0053,-0.0082,-0.01,-0.0153,-0.0184,-0.0219,-0.0263,-0.0297,-0.0317,-0.0344,-0.0388,-0.0401,-0.0415,-0.0422,-0.0405,-0.0402,-0.0371,-0.0358,-0.0324,-0.0346,-0.0324,-0.032,-0.0355,-0.0355,-0.0354,-0.0353,0,0,-0.0063,-0.0117,-0.0125,-0.0145,-0.0208,-0.024,-0.0298,-0.0357,-0.0387,-0.043,-0.0468,-0.0495,-0.0476,-0.0481,-0.0461,-0.0434,-0.0401,-0.0375,-0.0373,-0.0348,-0.0325,-0.03,-0.0292,-0.0364,-0.0364,-0.0363,-0.0316,0,-0.0087,-0.0144,-0.0176,-0.0231,-0.0258,-0.0299,-0.0352,-0.0407,-0.0446,-0.049,-0.0512,-0.0537,-0.0507,-0.0495,-0.0469,-0.0414,-0.0388,-0.0414,-0.0313,-0.0311,-0.0279,-0.0287,-0.0361,-0.0312,-0.0311,-0.0311,-0.031,0,-0.0128,-0.0155,-0.0207,-0.0261,-0.0278,-0.0323,-0.0394,-0.0447,-0.0515,-0.054,-0.0563,-0.0562,-0.0548,-0.0515,-0.0437,-0.0439,-0.0378,-0.0341,-0.0338,-0.0292,-0.0278,-0.0284,-0.0302,-0.0303,-0.0304,-0.0304,-0.0305,0,-0.0122,-0.0184,-0.0222,-0.0243,-0.0309,-0.0345,-0.0392,-0.0462,-0.0505,-0.0558,-0.0571,-0.0572,-0.0553,-0.049,-0.041,-0.0398,-0.0321,-0.0308,-0.0244,-0.0242,-0.0259,-0.026,-0.0254,-0.0254,-0.0254,-0.0255,-0.0255,0,-0.0144,-0.0176,-0.0222,-0.0239,-0.0297,-0.0345,-0.0414,-0.0459,-0.0521,-0.0549,-0.0577,-0.0573,-0.0529,-0.0486,-0.0417,-0.0317,-0.0327,-0.0242,-0.0224,-0.0281,-0.0285,-0.0257,-0.0258,-0.0253,-0.0253,-0.0254,-0.0254,0,-0.0147,-0.0173,-0.0217,-0.0272,-0.0294,-0.0342,-0.0426,-0.0467,-0.0513,-0.0544,-0.0549,-0.0556,-0.0488,-0.0463,-0.0367,-0.0314,-0.024,-0.0207,-0.0282,-0.0271,-0.0176,-0.018,-0.0121,-0.0119,-0.0118,-0.0117,-0.0116,0,-0.0159,-0.0174,-0.0231,-0.0259,-0.029,-0.0359,-0.0403,-0.0466,-0.0486,-0.0513,-0.0505,-0.048,-0.0468,-0.0347,-0.0311,-0.0228,-0.0207,-0.0169,-0.0159,-0.0171,-0.016,-0.0166,-0.0172,-0.0114,-0.0114,-0.0114,-0.0114,0,-0.0172,-0.0191,-0.0227,-0.0266,-0.0311,-0.0365,-0.041,-0.0417,-0.0458,-0.0487,-0.0443,-0.0411,-0.0358,-0.0306,-0.026,-0.0193,-0.0194,-0.0156,-0.0157,-0.0148,-0.0163,-0.0155,-0.0161,-0.0109,-0.011,-0.011,-0.0111,0,-0.0192,-0.0217,-0.0246,-0.0286,-0.0333,-0.0353,-0.0385,-0.0385,-0.0408,-0.0405,-0.0379,-0.0362,-0.0352,-0.0285,-0.0233,-0.0185,-0.0154,-0.011,-0.0113,-0.0117,-0.0135,-0.0155,-0.0077,0,0,0,0,0,-0.0212,-0.0226,-0.026,-0.0302,-0.0339,-0.0352,-0.0379,-0.0398,-0.04,-0.0352,-0.0366,-0.0315,-0.025,-0.0243,-0.0185,-0.021,-0.0156,-0.0137,-0.011,-0.0087,-0.0092,-0.0111,0,0,0,0,0,0,-0.023,-0.0258,-0.026,-0.0295,-0.0312,-0.0347,-0.0354,-0.0356,-0.0326,-0.0322,-0.0298,-0.0275,-0.0233,-0.0285,-0.0178,-0.0168,-0.0132,-0.0119,-0.0116,-0.0084,-0.0089,-0.0092,-0.0114,0,0,0,0,0]}]]